Total_Precipitation_Accumulation
1.49 1.50 1.54 1.49 1.47 1.49 1.42 1.38 1.41 1.56 1.61 1.58 1.56 1.59 1.58 1.55 1.62 1.64 1.47 1.57 1.68 1.72 1.74 1.89 1.94 1.98 1.97 1.97 2.12 2.24 2.47 2.69 2.42 1.94 1.82 1.84 1.96 1.94 1.83 1.61 1.43 1.36 1.21
1.54 1.64 1.74 1.77 1.78 1.70 1.50 1.41 1.47 1.55 1.60 1.62 1.62 1.63 1.54 1.56 1.74 1.77 1.67 1.73 1.78 1.76 1.80 1.90 1.81 1.94 2.07 2.03 2.17 2.21 2.31 2.59 2.49 2.24 2.17 2.15 2.14 2.04 2.00 1.79 1.48 1.33 1.26
1.80 1.98 2.17 2.24 2.07 1.86 1.74 1.65 1.66 1.65 1.67 1.71 1.78 1.83 1.82 1.85 1.84 1.88 1.95 1.92 1.83 1.74 1.79 1.79 1.75 1.94 1.96 2.05 2.16 2.12 2.11 2.26 2.42 2.33 2.28 2.36 2.33 2.19 2.09 1.91 1.73 1.65 1.37
1.54 1.84 2.05 2.17 2.01 1.91 1.87 1.73 1.66 1.69 1.75 1.81 1.87 2.03 2.20 2.25 2.22 2.13 2.04 1.97 1.91 1.84 1.81 1.76 1.76 1.80 1.83 1.90 2.01 2.08 2.13 2.23 2.34 2.35 2.40 2.54 2.52 2.54 2.46 2.19 2.07 2.02 1.73
1.33 1.51 1.76 2.00 1.83 1.57 1.52 1.50 1.47 1.56 1.68 1.95 2.11 2.20 2.44 2.58 2.42 2.42 2.32 2.22 2.19 2.01 1.89 1.81 1.71 1.72 1.75 1.78 1.73 1.82 1.93 2.06 2.08 2.14 2.20 2.42 2.50 2.61 2.56 2.36 2.23 2.23 2.07
1.24 1.40 1.58 1.70 1.53 1.34 1.23 1.25 1.30 1.40 1.58 1.77 1.92 2.04 2.08 1.94 2.08 2.09 2.08 2.11 2.15 2.04 1.97 1.92 1.77 1.66 1.62 1.55 1.44 1.46 1.54 1.64 1.81 2.02 2.07 2.25 2.44 2.57 2.69 2.73 2.59 2.43 2.29
1.23 1.28 1.41 1.53 1.53 1.41 1.22 1.20 1.26 1.35 1.52 1.63 1.68 1.75 1.72 1.77 1.79 1.59 1.55 1.53 1.68 1.79 1.86 1.85 1.64 1.49 1.57 1.51 1.53 1.48 1.45 1.53 1.63 1.86 2.01 2.05 2.24 2.43 2.64 2.79 2.79 2.69 2.49
1.19 1.28 1.48 1.66 1.66 1.59 1.50 1.43 1.48 1.56 1.57 1.56 1.61 1.66 1.73 1.72 1.62 1.42 1.42 1.38 1.51 1.62 1.70 1.74 1.71 1.63 1.63 1.67 1.59 1.48 1.39 1.45 1.54 1.51 1.54 1.67 1.91 2.26 2.45 2.48 2.60 2.60 2.46
1.34 1.44 1.55 1.71 1.77 1.78 1.84 1.87 1.91 1.90 1.78 1.71 1.74 1.81 1.81 1.75 1.63 1.44 1.44 1.39 1.50 1.54 1.55 1.57 1.59 1.53 1.59 1.48 1.39 1.38 1.37 1.40 1.38 1.36 1.32 1.36 1.49 1.70 2.04 2.19 2.26 2.22 2.12
1.51 1.66 1.71 1.88 1.99 1.96 2.05 2.15 2.22 2.25 2.17 2.15 2.07 1.96 1.85 1.76 1.71 1.44 1.37 1.32 1.41 1.47 1.53 1.51 1.45 1.32 1.27 1.22 1.20 1.31 1.30 1.29 1.34 1.28 1.20 1.14 1.11 1.26 1.56 1.74 1.82 1.85 1.76
1.61 1.73 1.82 2.02 2.20 2.32 2.47 2.56 2.53 2.50 2.53 2.48 2.26 2.11 2.06 2.03 1.86 1.44 1.28 1.23 1.30 1.45 1.51 1.51 1.40 1.31 1.13 1.09 1.09 1.13 1.17 1.16 1.24 1.27 1.23 1.19 1.20 1.20 1.25 1.39 1.59 1.71 1.67
1.71 1.85 2.03 2.16 2.21 2.30 2.60 2.68 2.65 2.61 2.52 2.38 2.23 2.03 1.91 1.88 1.72 1.44 1.25 1.27 1.38 1.48 1.50 1.47 1.46 1.32 1.11 1.04 0.98 0.97 0.99 0.93 0.96 1.08 1.06 1.02 1.04 1.04 1.07 1.21 1.41 1.54 1.62
1.72 1.92 2.12 2.24 2.40 2.56 2.67 2.60 2.54 2.53 2.43 2.29 2.16 1.97 1.93 2.00 1.93 1.61 1.40 1.39 1.41 1.36 1.37 1.41 1.35 1.20 1.00 0.87 0.86 0.84 0.78 0.76 0.85 0.95 0.96 0.89 0.86 0.91 1.00 1.15 1.29 1.43 1.47
1.56 1.71 1.87 1.95 2.02 2.16 2.34 2.29 2.19 2.18 2.22 2.18 2.10 2.02 1.97 1.99 1.95 1.70 1.48 1.45 1.43 1.38 1.32 1.29 1.17 1.10 0.96 0.87 0.87 0.80 0.73 0.80 0.89 0.91 0.95 0.95 0.92 0.94 0.97 1.03 1.14 1.26 1.32
1.38 1.44 1.53 1.59 1.68 1.80 1.90 1.98 1.95 1.93 1.88 1.88 1.86 1.84 1.75 1.70 1.74 1.60 1.45 1.49 1.55 1.56 1.49 1.42 1.31 1.20 1.06 0.96 0.95 0.97 0.98 1.04 1.03 1.01 1.05 1.10 1.07 1.00 0.97 1.00 1.14 1.18 1.14
1.42 1.39 1.39 1.44 1.50 1.54 1.62 1.63 1.60 1.48 1.37 1.28 1.22 1.22 1.20 1.25 1.35 1.28 1.20 1.27 1.36 1.44 1.38 1.32 1.27 1.19 1.11 1.10 1.14 1.16 1.14 1.15 1.12 1.13 1.14 1.17 1.17 1.09 1.00 0.99 1.09 1.15 1.10
1.51 1.43 1.39 1.33 1.33 1.38 1.42 1.48 1.48 1.32 1.13 0.98 0.89 0.84 0.84 0.91 1.00 1.01 1.03 1.12 1.24 1.34 1.31 1.31 1.28 1.25 1.18 1.16 1.19 1.19 1.15 1.14 1.18 1.19 1.19 1.20 1.24 1.24 1.20 1.14 1.12 1.17 1.15
1.58 1.49 1.38 1.31 1.25 1.26 1.28 1.29 1.36 1.42 1.32 1.13 0.92 0.77 0.70 0.70 0.74 0.84 0.95 1.06 1.19 1.23 1.22 1.27 1.26 1.24 1.21 1.18 1.14 1.15 1.15 1.17 1.17 1.16 1.19 1.22 1.28 1.30 1.31 1.24 1.16 1.13 1.16
1.40 1.33 1.25 1.21 1.21 1.21 1.22 1.21 1.20 1.27 1.27 1.22 1.07 0.89 0.77 0.70 0.70 0.78 0.83 0.90 1.08 1.16 1.17 1.16 1.13 1.09 1.06 1.06 1.05 1.03 1.02 1.03 1.06 1.12 1.13 1.14 1.20 1.18 1.14 1.11 1.12 1.12 1.13
1.35 1.30 1.19 1.16 1.20 1.21 1.20 1.20 1.18 1.24 1.24 1.24 1.12 0.94 0.79 0.68 0.67 0.72 0.77 0.90 1.08 1.11 1.07 1.03 1.03 1.00 1.00 1.00 1.01 0.99 0.98 0.99 1.04 1.13 1.14 1.13 1.15 1.13 1.08 1.07 1.13 1.15 1.13
1.31 1.23 1.10 1.06 1.08 1.13 1.18 1.17 1.14 1.15 1.15 1.18 1.06 0.84 0.71 0.64 0.69 0.76 0.85 0.97 1.07 1.02 0.98 0.95 0.93 0.89 0.88 0.89 0.91 0.93 0.97 1.02 1.05 1.09 1.13 1.16 1.19 1.17 1.13 1.13 1.17 1.21 1.21
1.31 1.24 1.10 0.96 0.93 0.99 1.05 1.07 1.07 1.06 1.05 1.06 0.97 0.76 0.66 0.59 0.65 0.74 0.81 0.90 0.95 0.94 0.92 0.91 0.87 0.80 0.80 0.82 0.86 0.93 0.97 0.99 1.03 1.11 1.14 1.16 1.22 1.19 1.19 1.20 1.21 1.24 1.29
1.19 1.11 1.01 0.85 0.82 0.88 0.94 1.01 1.01 0.95 0.95 0.94 0.85 0.73 0.67 0.69 0.71 0.78 0.86 0.90 0.93 0.96 0.94 0.89 0.83 0.79 0.79 0.80 0.82 0.88 0.94 0.99 0.99 1.03 1.07 1.11 1.18 1.20 1.24 1.23 1.20 1.24 1.26
1.01 1.01 0.97 0.80 0.75 0.87 0.97 1.03 0.99 0.89 0.88 0.85 0.76 0.74 0.74 0.77 0.78 0.79 0.82 0.87 0.89 0.88 0.88 0.85 0.79 0.75 0.75 0.77 0.81 0.82 0.85 0.87 0.87 0.91 0.94 1.01 1.07 1.12 1.17 1.17 1.17 1.18 1.22
0.92 0.91 0.94 0.85 0.78 0.86 0.94 0.99 0.96 0.88 0.83 0.76 0.71 0.73 0.74 0.72 0.74 0.76 0.79 0.84 0.84 0.82 0.78 0.75 0.78 0.79 0.78 0.79 0.80 0.81 0.82 0.74 0.70 0.72 0.77 0.86 0.91 0.98 1.02 1.00 1.04 1.10 1.16
0.85 0.83 0.85 0.84 0.81 0.87 0.95 0.97 0.96 0.89 0.82 0.75 0.70 0.71 0.72 0.72 0.72 0.74 0.74 0.76 0.77 0.78 0.76 0.75 0.73 0.72 0.72 0.69 0.65 0.64 0.60 0.54 0.52 0.58 0.62 0.69 0.77 0.86 0.89 0.89 0.88 0.96 1.04